HAIYANG-1B

Last updated on Sun Dec 07 2025 00:02:30 GMT+0000 (Coordinated Universal Time)

1 31113U 07010A 25340.58099027 .00000256 00000+0 11300-3 0 9991 2 31113 98.3308 325.1137 0014515 55.0701 305.1844 14.30961925973080
UTC large
Height (km)
Speed (km/s)
/
Latitude / Longitude
Inclination (degrees)
Orbital Period (minutes)
Azimuth
Elevation
Range (km)
Doppler Factor

Next 0 passes for location: London (51.5072 / 0.1276)

Sorry there are no passes over London.